This is the latest recevied weather packets stored in our database for station/object OM8AGG-15. If no packets are shown the sender has not sent any weather packets the latest 10 day(s).
| Time | Temp. | Humidity | Pressure | Rain* | Wind** | Luminosity | Snow |
|---|---|---|---|---|---|---|---|
| 1787908746 | 24.44° C | 80% | 1021.7 hPa | - | - | - | - |
| 1787907846 | 24.44° C | 80% | 1021.9 hPa | - | - | - | - |
| 1787906945 | 22.22° C | 80% | 1021.8 hPa | - | - | - | - |
| 1787906045 | 22.22° C | 80% | 1021.7 hPa | - | - | - | - |
| 1787905145 | 22.78° C | 80% | 1021.6 hPa | - | - | - | - |
| 1787904245 | 21.11° C | 80% | 1021.6 hPa | - | - | - | - |
| 1787903345 | 21.67° C | 80% | 1021.7 hPa | - | - | - | - |
| 1787902731 | 21.11° C | 80% | 1022 hPa | - | - | - | - |
| 1787902445 | 21.11° C | 80% | 1022 hPa | - | - | - | - |
| 1787901545 | 20° C | 80% | 1021.8 hPa | - | - | - | - |
| 1787900644 | 19.44° C | 80% | 1021.9 hPa | - | - | - | - |
| 1787899744 | 19.44° C | 80% | 1022 hPa | - | - | - | - |
| 1787898844 | 20.56° C | 80% | 1022.2 hPa | - | - | - | - |
| 1787897944 | 18.33° C | 80% | 1022.1 hPa | - | - | - | - |
| 1787897044 | 17.78° C | 80% | 1021.9 hPa | - | - | - | - |
| 1787896144 | 16.11° C | 79% | 1021.9 hPa | - | - | - | - |
| 1787895244 | 16.67° C | 79% | 1021.8 hPa | - | - | - | - |
| 1787894344 | 15.56° C | 79% | 1021.7 hPa | - | - | - | - |
| 1787893443 | 15° C | 79% | 1021.6 hPa | - | - | - | - |
| 1787893144 | 14.44° C | 79% | 1021.5 hPa | - | - | - | - |
| 1787892550 | 14.44° C | 79% | 1021.5 hPa | - | - | - | - |
| 1787891642 | 13.33° C | 79% | 1021.4 hPa | - | - | - | - |
| 1787890750 | 13.89° C | 79% | - | - | - | - | - |
| 1787890742 | 13.89° C | 79% | 1021.2 hPa | - | - | - | - |
| 1787889842 | 13.33° C | 79% | 1021.1 hPa | - | - | - | - |
* Rain since midnight (hover to see other rain measurements)
** Current wind speed in m/s (hover to see current wind gust speed)